• Join FlightAware (Why Join?)
  • Login
  • US Flag 
06:26PM EST


 

Airport Tracker/Info


-or-


 

Live Flight TrackerFlight Track Log ✈ EJA922 ✈ 13-Sep-2013 ✈ KCLL - KIAH

Flight Track Log - Related Links

Times and Time Zones

All times are in EDT time to prevent confusion due to time zone crossing. See the EJA922 flight status page for this flight to view local times or setup timezone preferences in your user account.

Time Position Orientation Groundspeed Altitude Reporting Facility
EDT Latitude Longitude Course Direction KTS MPH feet Rate Location/Type
09:35PM 30.5708 -96.3586 157° South 188 216 1,300  Level Houston Center
09:36PM 30.5064 -96.3389 165° South 212 244 5,100 3,114 Climbing Houston Center
09:37PM 30.4967 -96.3328 152° Southeast 216 249 5,400 2,959 Climbing Houston Center
09:38PM 30.4286 -96.3014 158° South 258 297 8,700 2,897 Climbing Houston Center
09:38PM 30.3764 -96.2397 134° Southeast 304 350 11,000 2,262 Climbing Houston Center
09:39PM 30.3739 -96.2356 125° Southeast 285 328 11,000  Level Houston Center
09:40PM 30.3058 -96.1431 130° Southeast 372 428 11,000  Level Houston Center
09:41PM 30.3659 -95.9839 157° South  Level Estimated
09:41PM 30.2314 -96.0436 131° Southeast 400 460 11,000  Level Houston Center
09:42PM 30.1631 -95.9533 131° Southeast 402 463 11,000 -55 Level Houston Center
09:42PM 30.0919 -95.8589 131° Southeast 406 467 10,900 -197 Descending Houston Center
09:43PM 30.0889 -95.8531 121° Southeast 409 471 10,800 -885 Descending Houston Center
09:43PM 30.0208 -95.7683 133° Southeast 370 426 10,000 -787 Descending Houston Center
09:44PM 30.0186 -95.7633 117° Southeast 382 440 10,000 -1,254 Level Houston Center
09:45PM 29.9611 -95.6861 131° Southeast 287 330 8,600 -1,180 Descending Houston Center
09:45PM 29.9656 -95.6908 317° Northwest 307 353 8,800 -1,869 Climbing Houston Center
09:46PM 29.9067 -95.6153 132° Southeast 284 327 6,700 -2,361 Descending Houston Center
09:46PM 29.9022 -95.6089 129° Southeast 287 330 6,400 -1,964 Descending Houston Center
09:47PM 29.8614 -95.5556 131° Southeast 278 320 4,900 -1,770 Descending Houston Center
09:47PM 29.8517 -95.5417 129° Southeast 281 323 4,600 -1,000 Descending Houston Center
09:48PM 29.8064 -95.4828 132° Southeast 225 259 3,700 -885 Descending Houston Center
09:48PM 29.8067 -95.4828 360° North 260 299 3,700 -689 Level Houston Center
09:49PM 29.7706 -95.4339 130° Southeast 184 212 3,000 -689 Descending Houston Center
09:49PM 29.7711 -95.4358 288° West 212 244 3,000 -95 Level Houston Center
09:50PM 29.7389 -95.3933 131° Southeast 186 214 2,900 -92 Descending Houston Center
09:50PM 29.7350 -95.3900 143° Southeast 149 171 2,900 -831 Level Houston Center
09:51PM 29.7108 -95.3569 130° Southeast 123 142 2,000 -828 Descending Houston Center
09:52PM 29.6897 -95.3331 135° Southeast 129 148 1,300 -737 Descending Houston Center
09:52PM 29.6917 -95.3339 340° North 124 143 1,300 -873 Level Houston Center
09:53PM 29.6639 -95.3025 136° Southeast 141 162 500 -900 Descending Houston Center
09:53PM 29.6647 -95.3031 330° Northwest 129 148 400 -353 Descending Houston Center
09:54PM 29.6356 -95.2669 133° Southeast 132 152 100 -295 Descending Houston Center
09:56PM 29.6333 -95.2667 115° Southeast  Level FlightAware Approximate
10:03PM 29.9844 -95.3414 115° Southeast  Level Estimated
10:04PM 29.9844 -95.3414 115° Southeast  Level Estimated
10:05PM 29.9844 -95.3414 115° Southeast  Level Estimated
10:06PM 29.9844 -95.3414 115° Southeast  Level Estimated
10:07PM 29.9844 -95.3414 115° Southeast  Level Estimated
10:08PM 29.9844 -95.3414 115° Southeast  Level Estimated
10:09PM 29.9844 -95.3414 115° Southeast  Level Estimated
10:10PM 29.9844 -95.3414 115° Southeast  Level Estimated
10:11PM 29.9844 -95.3414 115° Southeast  Level Estimated
10:12PM 29.9844 -95.3414 115° Southeast  Level Estimated
10:13PM 29.9844 -95.3414 115° Southeast  Level Estimated
10:14PM 29.9844 -95.3414 115° Southeast  Level Estimated
10:15PM 29.9844 -95.3414 115° Southeast  Level Estimated
10:16PM 29.9844 -95.3414 115° Southeast  Level Estimated
10:17PM 29.9844 -95.3414 115° Southeast  Level Estimated
10:18PM 29.9844 -95.3414 115° Southeast  Level Estimated